Home   Weather   Deline   Past weeks
Flag for Canada

Past Weather in Deline, Northwest Territories, Canada — Yesterday and Last 2 Weeks

Now
18 °F

Cold.


Feels Like: 5 °F
Forecast: 18 / 4 °F
Wind: 13 mph from Northwest

Location: Deline

Current Time: Apr 10, 2020 at 1:04:33 pm

Latest Report: Apr 10, 2020 at 12:00 pm


Visibility: N/A

Pressure: 30.45 "Hg

Humidity: 45%

Dew Point: 0 °F

Location of DelineLocation

Past Weather in Deline — Graph

°F

Deline Temperature Yesterday

Maximum temperature yesterday: 26 °F (at 11:00 am)
Minimum temperature yesterday: 19 °F (at 11:00 pm)
Average temperature yesterday: 23 °F

High & Low Weather Summary for the Past Weeks

 TemperatureHumidityPressure
High30 °F (Apr 8, 5:00 pm)98% (Apr 7, 1:00 am)30.84 "Hg (Apr 7, 1:00 am)
Low-33 °F (Mar 28, 8:00 am)31% (Apr 1, 8:00 pm)29.43 "Hg (Apr 6, 12:00 pm)
Average4 °F62%30.25 "Hg
* Reported Mar 26 11:00 am — Apr 10 11:00 am, Deline. Weather by CustomWeather, © 2020

Note: Actual official high and low records may vary slightly from our data, if they occured in-between our weather recording intervals... More about our weather records

Deline Weather History for the Previous 24 Hours

Scroll right to see more
 ConditionsComfort  
Time TempWeatherWind HumidityBarometerVisibility
11:00 am
Fri, Apr 10
15 °FCold.12 mph52%30.45 "HgN/A
10:00 am12 °FCold.12 mph59%30.44 "HgN/A
9:00 am9 °FFrigid.10 mph66%30.42 "HgN/A
8:00 am6 °FFrigid.13 mph73%30.43 "HgN/A
7:00 am4 °FFrigid.8 mph77%30.42 "HgN/A
6:00 am5 °FFrigid.8 mph76%30.39 "HgN/A
5:00 am8 °FFrigid.6 mph69%30.38 "HgN/A
4:00 am7 °FFrigid.8 mph72%30.36 "HgN/A
3:00 am10 °FFrigid.7 mph68%30.34 "HgN/A
2:00 am13 °FCold.9 mph62%30.31 "HgN/A
1:00 am17 °FCold.10 mph58%30.28 "HgN/A
12:00 am17 °FCold.9 mph58%30.26 "HgN/A
11:00 pm
Thu, Apr 9
19 °FCold.8 mph60%30.24 "HgN/A
10:00 pm22 °FCold.9 mph57%30.22 "HgN/A
9:00 pm24 °FCold.10 mph59%30.20 "HgN/A
8:00 pm25 °FChilly.15 mph54%30.18 "HgN/A
7:00 pm25 °FChilly.16 mph54%30.16 "HgN/A
6:00 pm25 °FChilly.16 mph55%30.13 "HgN/A
5:00 pm26 °FChilly.17 mph61%30.11 "HgN/A
4:00 pm25 °FCold.16 mph69%30.08 "HgN/A
3:00 pm23 °FCold.16 mph76%30.06 "HgN/A
2:00 pm24 °FCold.16 mph77%30.03 "HgN/A
1:00 pm23 °FCold.14 mph78%30.00 "HgN/A
Weather by CustomWeather, © 2020

See weather overview

Advertising